Location: Piolenc
(44.1794°N, 4.7641°E)
Time: 04:51:00
(UTC+00:00)

Cosmos 2237 Rocket - Pass Details

Date: 27 January 2021
Orbit: 833 x 851 km, 71.0° (Epoch: 27 February)

Event Time Altitude Azimuth Distance (km) Brightness Sun altitude
Exits shadow 05:24:39 29° 296° (WNW) 1,522 3.0 -17.8°
Maximum altitude 05:25:17 29° 307° (NW) 1,501 3.0 -17.7°
Drops below altitude 10° 05:30:14 10° 8° (N) 2,485 4.6 -16.8°
Sets 05:33:02 0° 19° (NNE) 3,426 5.5 -16.3°
